Weather History for Rifle, CO

Change the Weather History Date:

Sunday, March 30, 2014

  Actual Average Record
Temperature  
Mean Temperature 49 °F 43 °F  
Max Temperature 63 °F 58 °F 77 °F (1986)
Min Temperature 35 °F 29 °F 9 °F (1987)
Degree Days  
Heating Degree Days 16 22  
Month to date heating degree days 703 766  
Since 1 July heating degree days 5914 5763  
Cooling Degree Days 0 0  
Month to date cooling degree days 0 0  
Year to date cooling degree days 0 0  
Moisture  
Dew Point 28 °F    
Average Humidity 46    
Maximum Humidity 76    
Minimum Humidity 16    
Precipitation  
Precipitation 0.08 in 0.06 in 0.53 in (1953)
Month to date precipitation 0.78 1.15  
Year to date precipitation 2.18 2.72  
Sea Level Pressure  
Sea Level Pressure 29.70 in    
Wind  
Wind Speed 11 mph (SW)    
Max Wind Speed 48 mph    
Max Gust Speed 64 mph    
Visibility 10 miles    
Events Rain , Thunderstorm    
T = Trace of Precipitation, MM = Missing Value Source: NWS Daily Summary

Daily Weather History Graph

Daily Weather History Graph

Search for Another Location

Airport:

Trip Planner

Search our weather history database for the weather conditions in past years. The results will help you decide how hot, cold, wet, or windy it might be!

Date:

Astronomy

Mar. 30, 2014 Rise Set
Actual Time 6:58 AM MDT 7:32 PM MDT
Civil Twilight 6:31 AM MDT 8:00 PM MDT
Nautical Twilight 5:59 AM MDT 8:32 PM MDT
Astronomical Twilight 5:26 AM MDT 9:04 PM MDT
Moon 6:45 AM MDT (3/30) 7:48 PM MDT (3/30)
Length of Visible Light 13h 28m
Length of Day
12h 34m
Waning Crescent, 0% of the Moon is Illuminated
Mar 30
Waning Crescent
Mar 30
New
Apr 7
First Quarter
Apr 15
Full
Apr 22
Last Quarter

Hourly Weather History & Observations

Time (MDT) Temp. Windchill Dew Point Humidity Pressure Visibility Wind Dir Wind Speed Gust Speed Precip Events Conditions
12:53 AM 39.9 °F 37.8 °F 28.0 °F 63% 29.90 in 10.0 mi WSW 3.5 mph - N/A   Clear
1:53 AM 42.1 °F - 27.0 °F 55% 29.86 in 10.0 mi Calm Calm - N/A   Clear
2:53 AM 41.0 °F - 27.0 °F 57% 29.82 in 10.0 mi Calm Calm - N/A   Clear
3:53 AM 39.9 °F 36.7 °F 27.0 °F 60% 29.80 in 10.0 mi SSE 4.6 mph - N/A   Clear
4:53 AM 39.0 °F - 27.0 °F 62% 29.78 in 10.0 mi Calm Calm - N/A   Clear
5:53 AM 37.9 °F - 26.1 °F 62% 29.76 in 10.0 mi Calm Calm - N/A   Clear
6:53 AM 35.1 °F - 27.0 °F 72% 29.77 in 10.0 mi Calm Calm - N/A   Clear
7:53 AM 37.9 °F 34.4 °F 28.0 °F 68% 29.79 in 10.0 mi WSW 4.6 mph - N/A   Clear
8:53 AM 39.9 °F 35.1 °F 30.0 °F 68% 29.79 in 10.0 mi SSE 6.9 mph - N/A   Scattered Clouds
9:53 AM 46.0 °F 40.6 °F 27.0 °F 47% 29.75 in 10.0 mi West 11.5 mph 19.6 mph N/A   Partly Cloudy
10:53 AM 55.0 °F - 24.1 °F 30% 29.72 in 10.0 mi WNW 11.5 mph 32.2 mph N/A   Clear
11:53 AM 55.0 °F - 24.1 °F 30% 29.68 in 10.0 mi West 6.9 mph - N/A   Overcast
12:53 PM 54.0 °F - 25.0 °F 33% 29.65 in 10.0 mi Calm Calm - N/A   Overcast
1:53 PM 57.0 °F - 21.0 °F 25% 29.56 in 10.0 mi Variable 4.6 mph - N/A   Mostly Cloudy
2:53 PM 59.0 °F - 16.0 °F 19% 29.52 in 10.0 mi SSW 16.1 mph 27.6 mph N/A   Overcast
3:53 PM 61.0 °F - 14.0 °F 16% 29.46 in 10.0 mi South 16.1 mph 23.0 mph N/A   Mostly Cloudy
4:53 PM 60.1 °F - 15.1 °F 17% 29.43 in 10.0 mi South 35.7 mph 46.0 mph N/A   Mostly Cloudy
5:36 PM 48.9 °F - 33.1 °F 54% 29.60 in 8.0 mi West 26.5 mph 38.0 mph 0.01 in Rain Light Rain
5:53 PM 46.9 °F - 35.1 °F 63% 29.54 in 10.0 mi West 15.0 mph - 0.01 in Rain Light Rain
6:53 PM 42.1 °F 29.1 °F 35.1 °F 76% 29.62 in 5.0 mi WSW 46.0 mph 56.4 mph 0.03 in Rain Light Rain
6:58 PM 41.0 °F 27.5 °F 34.0 °F 76% 29.65 in 3.0 mi WSW 47.2 mph 64.4 mph 0.01 in Rain , Thunderstorm Light Thunderstorms and Rain
7:19 PM 41.0 °F 33.1 °F 34.0 °F 76% 29.69 in 10.0 mi WSW 15.0 mph - 0.02 in Rain Light Rain
7:28 PM 41.0 °F 36.4 °F 33.1 °F 73% 29.68 in 10.0 mi WNW 6.9 mph - 0.02 in Rain Light Rain
7:53 PM 41.0 °F 38.0 °F 33.1 °F 73% 29.65 in 10.0 mi ENE 4.6 mph - 0.02 in   Mostly Cloudy
8:53 PM 43.0 °F 33.1 °F 30.9 °F 62% 29.70 in 10.0 mi WSW 26.5 mph 35.7 mph 0.00 in Rain Light Rain
9:04 PM 39.9 °F 30.8 °F 32.0 °F 73% 29.75 in 7.0 mi SSW 18.4 mph 33.4 mph 0.01 in Rain Light Rain
9:13 PM 39.9 °F 33.9 °F 33.1 °F 77% 29.74 in 10.0 mi South 9.2 mph - 0.01 in Rain Light Rain
9:23 PM 39.9 °F 35.8 °F 33.1 °F 77% 29.74 in 10.0 mi South 5.8 mph - 0.01 in   Overcast
9:53 PM 39.0 °F 31.8 °F 32.0 °F 76% 29.73 in 10.0 mi WSW 11.5 mph - 0.02 in Rain Light Rain
10:53 PM 39.0 °F 30.6 °F 32.0 °F 76% 29.73 in 10.0 mi WNW 15.0 mph 32.2 mph 0.00 in Rain Light Rain
11:53 PM 37.9 °F 28.2 °F 30.0 °F 73% 29.78 in 10.0 mi West 18.4 mph 25.3 mph 0.00 in Rain Light Rain